1504486800.61,21278,16.94,73102.5,-0.79,-1.47,-1.39,0,*69
1504486801.88,21279,16.94,73096.8,-0.79,-1.39,-1.43,0,*6C
1504486803.15,21280,16.94,73094.8,-0.79,-1.47,-1.47,0,*67
1504486804.37,21281,16.94,73094.8,-0.79,-1.51,-1.51,0,*66
1504486805.61,21282,16.94,73100.3,-0.79,-1.47,-1.51,0,*62
1504486806.82,21283,16.94,73108.5,-0.79,-1.51,-1.51,0,*64
1504486808.01,21284,16.94,73108.8,-0.81,-1.51,-1.51,0,*64
1504486809.2,21285,16.94,73110.5,-0.81,-1.51,-1.51,0,*65
1504486810.47,21286,16.94,73110.3,-0.79,-1.35,-1.43,0,*60
1504486811.66,21287,16.94,73100.0,-0.81,-1.21,-1.17,0,*62
1504486812.87,21288,16.94,73096.0,-0.79,-0.81,-0.81,0,*6F
1504486814.11,21289,16.94,73100.0,-0.77,-0.93,-1.05,0,*5E
1504486815.29,21290,16.94,73102.3,-0.77,-1.25,-1.25,0,*68
1504486816.51,21291,16.94,73110.8,-0.75,-1.21,-1.21,0,*6B
1504486817.73,21292,16.94,73112.8,-0.77,-1.39,-1.29,0,*6B
1504486819.0,21293,16.94,73098.3,-0.75,-1.35,-1.35,0,*69
1504486820.24,21294,16.94,73098.0,-0.77,-1.35,-1.35,0,*6C
1504486821.49,21295,16.94,73096.3,-0.77,-1.39,-1.39,0,*6D
1504486822.67,21296,16.94,73092.8,-0.77,-1.51,-1.51,0,*6E
1504486823.94,21297,16.94,73106.8,-0.75,-1.47,-1.47,0,*6D
1504486825.18,21298,16.94,73110.0,-0.77,-1.35,-1.35,0,*60
1504486826.42,21299,16.94,73104.3,-0.77,-1.35,-1.35,0,*61
1504486827.68,21300,16.94,73084.0,-0.75,-0.97,-0.89,0,*6D
1504486828.94,21301,16.94,73086.5,-0.75,-1.01,-1.01,0,*63
1504486830.21,21302,16.94,73106.8,-0.75,-1.35,-1.35,0,*60
1504486831.42,21303,16.94,73112.8,-0.75,-1.25,-1.33,0,*66
1504486832.67,21304,16.94,73100.5,-0.75,-1.33,-1.35,0,*60
1504486833.94,21305,16.94,73110.0,-0.75,-1.43,-1.43,0,*67
1504486835.18,21306,16.94,73104.8,-0.77,-1.47,-1.47,0,*66
1504486836.45,21307,16.94,73100.3,-0.75,-1.43,-1.43,0,*65
1504486837.72,21308,16.94,73102.3,-0.75,-1.35,-1.35,0,*6A
1504486838.93,21309,16.94,73102.0,-0.77,-1.51,-1.47,0,*6E
1504486840.15,21310,16.94,73108.0,-0.77,-1.47,-1.51,0,*66
1504486841.42,21311,16.94,73114.8,-0.75,-1.47,-1.47,0,*62
1504486842.63,21312,16.94,73102.0,-0.75,-1.51,-1.59,0,*69
1504486843.81,21313,16.94,73102.0,-0.77,-1.55,-1.55,0,*62
1504486845.02,21314,16.94,73096.3,-0.75,-1.51,-1.51,0,*67
1504486846.24,21315,16.94,73104.5,-0.75,-1.51,-1.51,0,*66
1504486847.44,21316,16.94,73104.5,-0.75,-1.59,-1.59,0,*65
1504486848.63,21317,16.94,73096.0,-0.77,-1.55,-1.55,0,*66
1504486849.81,21318,16.94,73098.3,-0.77,-1.55,-1.55,0,*69
1504486851.03,21319,16.94,73106.8,-0.77,-1.51,-1.47,0,*6F
1504486852.24,21320,16.94,73106.5,-0.77,-1.51,-1.47,0,*65
1504486853.48,21321,16.94,73118.3,-0.77,-1.47,-1.47,0,*63
1504486854.7,21322,16.94,73122.3,-0.77,-1.47,-1.51,0,*67
1504486855.97,21323,16.94,73116.5,-0.75,-1.47,-1.47,0,*63
1504486857.18,21324,16.94,73116.3,-0.77,-1.51,-1.43,0,*65
1504486858.36,21325,16.94,73106.8,-0.77,-1.51,-1.51,0,*67
1504486859.63,21326,16.94,73116.0,-0.75,-1.47,-1.47,0,*66
1504486860.87,21327,16.94,73114.0,-0.75,-1.51,-1.47,0,*60
1504486862.08,21328,16.94,73114.8,-0.77,-1.51,-1.47,0,*6D
1504486863.35,21329,17.0,73114.3,-0.75,-1.47,-1.43,0,*6D
1504486864.62,21330,16.94,73114.0,-0.75,-1.43,-1.47,0,*65
1504486865.89,21331,16.94,73110.5,-0.75,-1.43,-1.35,0,*61
1504486867.16,21332,16.94,73098.5,-0.75,-1.47,-1.43,0,*67
1504486868.43,21333,16.94,73108.5,-0.75,-1.47,-1.47,0,*62
1504486869.7,21334,16.94,73110.5,-0.75,-1.43,-1.47,0,*61
1504486870.97,21335,16.94,73110.8,-0.75,-1.47,-1.43,0,*60
1504486872.24,21336,17.0,73114.3,-0.75,-1.43,-1.43,0,*67
1504486873.45,21337,16.94,73108.5,-0.77,-1.51,-1.47,0,*63
1504486874.72,21338,16.94,73116.3,-0.75,-1.47,-1.47,0,*69
1504486875.96,21339,16.94,73116.8,-0.75,-1.47,-1.51,0,*6F
1504486877.21,21340,16.94,73120.8,-0.77,-1.47,-1.47,0,*64
1504486878.48,21341,16.94,73118.3,-0.75,-1.43,-1.43,0,*67
1504486879.69,21342,16.94,73116.3,-0.77,-1.51,-1.47,0,*61
1504486880.95,21343,16.94,73114.5,-0.75,-1.35,-1.35,0,*65
1504486882.19,21344,16.94,73112.5,-0.77,-1.35,-1.35,0,*60
1504486883.46,21345,16.94,73112.8,-0.75,-1.43,-1.47,0,*67
1504486884.73,21346,16.94,73112.0,-0.75,-1.43,-1.35,0,*61
1504486885.98,21347,16.94,73114.3,-0.77,-1.47,-1.47,0,*63
1504486887.25,21348,16.94,73114.3,-0.75,-1.43,-1.43,0,*6E
1504486888.51,21349,16.94,73108.3,-0.75,-1.43,-1.47,0,*6B
1504486889.75,21350,16.94,73108.3,-0.75,-1.43,-1.33,0,*60
1504486891.02,21351,16.94,73110.5,-0.75,-1.43,-1.47,0,*62
1504486892.24,21352,16.94,73118.0,-0.77,-1.47,-1.51,0,*60
1504486893.51,21353,16.94,73116.5,-0.75,-1.43,-1.35,0,*65
1504486894.78,21354,16.94,73114.8,-0.75,-1.47,-1.47,0,*63
1504486896.05,21355,16.94,73108.3,-0.75,-1.87,-1.87,0,*62
1504486897.24,21356,16.94,73104.5,-0.77,-1.67,-1.75,0,*60
1504486898.46,21357,16.94,73108.5,-0.75,-1.71,-1.75,0,*64
1504486899.65,21358,16.94,73104.8,-0.77,-1.63,-1.63,0,*6D
1504486900.84,21359,16.94,73098.3,-0.77,-1.63,-1.63,0,*6C
1504486902.02,21360,16.94,73102.5,-0.77,-1.55,-1.63,0,*63
1504486903.21,21361,16.94,73106.5,-0.77,-1.55,-1.63,0,*62
1504486904.4,21362,16.94,73094.5,-0.77,-1.55,-1.63,0,*61
1504486905.59,21363,16.94,73098.8,-0.77,-1.63,-1.63,0,*65
1504486906.78,21364,16.94,73100.8,-0.77,-1.63,-1.63,0,*62
1504486907.96,21365,16.94,73100.3,-0.77,-1.63,-1.63,0,*63
1504486909.17,21366,16.94,73106.5,-0.75,-1.59,-1.59,0,*62
1504486910.38,21367,16.94,73108.3,-0.75,-1.51,-1.51,0,*63
1504486911.57,21368,16.94,73114.0,-0.77,-1.55,-1.55,0,*6E
1504486912.76,21369,16.94,73112.3,-0.77,-1.63,-1.63,0,*6F
1504486913.94,21370,16.94,73106.8,-0.77,-1.55,-1.55,0,*67
1504486915.13,21371,16.94,73112.0,-0.77,-1.55,-1.55,0,*66
1504486916.32,21372,16.94,73116.8,-0.77,-1.55,-1.55,0,*65
1504486917.53,21373,16.94,73108.0,-0.77,-1.51,-1.47,0,*63
1504486918.74,21374,16.94,73114.8,-0.77,-1.47,-1.51,0,*64
1504486919.93,21375,16.94,73114.0,-0.77,-1.51,-1.51,0,*62
1504486921.14,21376,16.94,73098.5,-0.77,-1.13,-1.17,0,*65
1504486922.38,21377,16.94,73076.8,-0.77,-1.13,-1.13,0,*60
1504486923.57,21378,16.94,73078.3,-0.77,-1.51,-1.51,0,*6F
1504486924.75,21379,16.94,73120.5,-0.77,-1.63,-1.63,0,*6E
1504486925.94,21380,16.94,73106.3,-0.77,-1.63,-1.63,0,*68
1504486927.16,21381,16.94,73102.5,-0.77,-1.47,-1.51,0,*6E
1504486928.34,21382,16.94,73108.5,-0.77,-1.51,-1.51,0,*6A
1504486929.53,21383,16.94,73100.8,-0.77,-1.55,-1.51,0,*6F
1504486930.74,21384,16.94,73114.8,-0.79,-1.55,-1.55,0,*62
1504486931.96,21385,16.94,73112.8,-0.79,-1.55,-1.55,0,*63
1504486933.15,21386,16.94,73098.0,-0.77,-1.67,-1.67,0,*6E
1504486934.34,21387,16.94,73084.5,-0.77,-1.75,-1.75,0,*6F
1504486935.53,21388,16.94,73112.0,-0.77,-1.63,-1.67,0,*64
1504486936.71,21389,16.94,73110.8,-0.77,-1.51,-1.55,0,*65
1504486937.92,21390,16.94,73108.3,-0.79,-1.51,-1.51,0,*67
1504486939.14,21391,16.94,73106.5,-0.79,-1.55,-1.63,0,*63
1504486940.35,21392,16.94,73106.0,-0.79,-1.63,-1.55,0,*60
1504486941.56,21393,16.94,73110.3,-0.79,-1.55,-1.55,0,*64
1504486942.78,21394,16.94,73114.8,-0.79,-1.55,-1.59,0,*6F
1504486943.96,21395,16.94,73108.0,-0.77,-1.63,-1.63,0,*6C
1504486945.2,21396,16.94,73094.8,-0.77,-1.91,-1.87,0,*68
1504486946.42,21397,16.94,73104.5,-0.77,-1.87,-1.79,0,*6F
1504486947.61,21398,16.94,73106.5,-0.77,-1.79,-1.79,0,*61
1504486948.82,21399,16.94,73104.5,-0.79,-1.75,-1.79,0,*62
1504486950.04,21400,16.94,73104.3,-0.79,-1.67,-1.55,0,*68
1504486951.25,21401,16.94,73108.3,-0.79,-1.63,-1.55,0,*6D
1504486952.46,21402,16.94,73110.3,-0.79,-1.55,-1.55,0,*6B
1504486953.68,21403,16.94,73102.0,-0.79,-1.55,-1.55,0,*6A
1504486954.89,21404,16.94,73102.8,-0.79,-1.75,-1.67,0,*6E
1504486956.09,21405,16.94,73100.3,-0.81,-1.79,-1.71,0,*63
1504486957.29,21406,16.94,73098.8,-0.81,-1.79,-1.71,0,*60
1504486958.51,21407,16.94,73096.5,-0.81,-1.83,-1.79,0,*6C
1504486959.78,21408,16.94,73098.5,-0.79,-1.87,-1.87,0,*61
1504486961.02,21409,16.94,73102.8,-0.81,-1.95,-1.91,0,*63
1504486962.26,21410,16.94,73106.8,-0.81,-2.03,-1.95,0,*63
1504486963.48,21411,16.94,73106.0,-0.81,-2.03,-2.15,0,*69
1504486964.72,21412,16.94,73110.0,-0.81,-1.95,-2.03,0,*61
1504486965.96,21413,16.94,73110.5,-0.81,-1.91,-1.91,0,*6C
1504486967.16,21414,16.94,73112.3,-0.81,-1.71,-1.71,0,*6B
1504486968.35,21415,16.94,73100.0,-0.81,-1.67,-1.59,0,*67
1504486969.55,21416,16.94,73106.0,-0.81,-1.67,-1.67,0,*69
1504486970.75,21417,16.94,73108.3,-0.81,-1.71,-1.71,0,*68
1504486971.94,21418,16.94,73110.5,-0.81,-1.79,-1.71,0,*6F
1504486973.14,21419,16.94,73106.0,-0.81,-1.79,-1.71,0,*6E
1504486974.4,21420,16.94,73100.8,-0.83,-1.91,-1.95,0,*6A
1504486975.67,21421,16.94,73108.0,-0.83,-1.95,-2.03,0,*63
1504486976.94,21422,16.94,73112.0,-0.83,-1.83,-1.95,0,*6B
1504486978.17,21423,16.94,73110.8,-0.83,-1.71,-1.71,0,*6D
1504486979.38,21424,16.94,73114.0,-0.83,-1.59,-1.55,0,*66
1504486980.59,21425,16.94,73114.0,-0.83,-1.59,-1.59,0,*6B
1504486981.8,21426,16.94,73112.0,-0.83,-1.59,-1.59,0,*68
1504486983.03,21427,16.94,73118.0,-0.83,-1.67,-1.67,0,*69
1504486984.3,21428,16.94,73120.0,-0.83,-2.03,-2.03,0,*66
1504486985.52,21429,16.94,73120.0,-0.83,-2.27,-2.31,0,*60
1504486986.76,21430,16.94,73118.5,-0.83,-2.43,-2.47,0,*6B
1504486988.03,21431,16.94,73110.0,-0.85,-2.47,-2.47,0,*68
1504486989.25,21432,16.94,73104.3,-0.85,-2.35,-2.31,0,*6F
1504486990.51,21433,16.94,73106.5,-0.85,-2.11,-2.11,0,*6A
1504486991.78,21434,16.94,73098.3,-0.85,-1.99,-1.99,0,*6D
1504486993.04,21435,16.94,73102.8,-0.83,-1.95,-1.95,0,*6A
1504486994.3,21436,16.94,73122.0,-0.85,-1.95,-1.95,0,*6F
1504486995.5,21437,16.94,73108.3,-0.85,-2.43,-2.43,0,*6E
1504486996.77,21438,16.94,73106.8,-0.89,-2.67,-2.75,0,*6E
1504486997.97,21439,16.94,73108.5,-0.89,-2.79,-2.79,0,*6C
1504486999.22,21440,16.94,73100.0,-0.91,-2.63,-2.67,0,*6F
1504487000.47,21441,16.94,73100.0,-0.91,-2.63,-2.63,0,*6A
1504487001.72,21442,16.94,73098.8,-0.91,-2.63,-2.63,0,*69
1504487002.9,21443,16.94,73094.5,-0.95,-2.43,-2.43,0,*6C
1504487004.09,21444,16.94,73100.8,-0.95,-2.43,-2.43,0,*6B
1504487005.31,21445,16.94,73098.0,-0.93,-2.19,-2.31,0,*66
1504487006.49,21446,16.94,73100.3,-0.95,-2.39,-2.39,0,*69
1504487007.69,21447,16.94,73108.0,-0.95,-2.31,-2.31,0,*68
1504487008.88,21448,16.94,73112.0,-0.95,-2.39,-2.31,0,*6F
1504487010.12,21449,16.94,73108.5,-0.95,-2.51,-2.55,0,*62
1504487011.36,21450,16.94,73110.0,-0.95,-2.59,-2.59,0,*6E
1504487012.6,21451,16.94,73114.5,-0.95,-2.59,-2.59,0,*6F
1504487013.87,21452,16.94,73108.8,-0.97,-2.63,-2.63,0,*6E
1504487015.11,21453,16.94,73116.3,-0.99,-2.67,-2.67,0,*61
1504487016.36,21454,16.94,73114.3,-0.97,-2.43,-2.47,0,*6C
1504487017.57,21455,16.94,73114.0,-0.97,-2.19,-2.19,0,*69
1504487018.83,21456,16.94,73104.3,-0.97,-1.95,-1.95,0,*6A
1504487020.07,21457,16.94,73094.5,-0.99,-1.91,-1.91,0,*65
1504487021.28,21458,16.94,73094.5,-0.99,-1.91,-1.79,0,*6C
1504487022.5,21459,16.94,73092.8,-0.97,-1.75,-1.71,0,*61
1504487023.71,21460,16.94,73094.8,-0.97,-1.75,-1.75,0,*6F
1504487024.91,21461,16.94,73082.5,-0.95,-1.71,-1.79,0,*64
1504487026.12,21462,16.94,73078.3,-0.97,-1.75,-1.75,0,*6D
1504487027.34,21463,16.94,73086.8,-0.95,-1.83,-1.79,0,*6B
1504487028.56,21464,16.94,73084.8,-0.95,-1.83,-1.79,0,*6C
1504487029.78,21465,16.94,73084.8,-0.95,-1.83,-1.79,0,*6D
1504487030.98,21466,16.94,73088.5,-0.95,-1.71,-1.71,0,*6B
1504487032.17,21467,16.94,73094.5,-0.95,-1.55,-1.63,0,*6F
1504487033.42,21468,16.94,73106.0,-0.93,-1.17,-1.09,0,*6C
1504487034.63,21469,16.94,73104.3,-0.93,-1.33,-1.29,0,*69
1504487035.9,21470,16.94,73100.8,-0.93,-1.43,-1.39,0,*67
1504487037.11,21471,16.94,73102.8,-0.93,-1.63,-1.63,0,*6B
1504487038.33,21472,16.94,73102.5,-0.93,-1.67,-1.63,0,*6C
1504487039.52,21473,16.94,73104.3,-0.91,-1.63,-1.63,0,*6B
1504487040.7,21474,16.94,73102.3,-0.91,-1.63,-1.59,0,*65
1504487041.88,21475,16.94,73106.3,-0.91,-0.29,-0.77,0,*66
1504487043.09,21476,16.94,73104.8,-0.91,-0.77,-0.89,0,*6F
1504487044.35,21477,16.94,73104.0,-0.89,-1.35,-1.35,0,*66
1504487045.55,21478,16.94,73104.0,-0.89,-1.51,-1.59,0,*61
1504487046.76,21479,16.94,73104.3,-0.89,-1.63,-1.63,0,*68
1504487047.95,21480,16.94,73100.0,-0.91,-1.63,-1.63,0,*67
1504487049.16,21481,16.94,73106.0,-0.89,-1.63,-1.63,0,*6F
1504487050.37,21482,16.94,73100.8,-0.89,-1.59,-1.63,0,*65
1504487051.58,21483,16.94,73106.8,-0.89,-1.63,-1.63,0,*6D
1504487052.78,21484,16.94,73100.3,-0.89,-1.59,-1.59,0,*6A
1504487054.05,21485,16.94,73096.5,-0.89,-1.47,-1.47,0,*6B
1504487055.31,21486,16.94,73098.5,-0.89,-1.47,-1.47,0,*68
1504487056.52,21487,16.94,73098.0,-0.89,-1.51,-1.51,0,*69
1504487057.72,21488,16.94,73096.0,-0.89,-1.59,-1.59,0,*66
1504487058.93,21489,16.94,73094.5,-0.89,-1.63,-1.63,0,*67
1504487060.15,21490,16.94,73094.3,-0.89,-1.67,-1.79,0,*60
1504487061.41,21491,16.94,73086.8,-0.85,-1.87,-1.87,0,*62
1504487062.67,21492,16.94,73086.5,-0.85,-1.87,-1.87,0,*61
1504487063.91,21493,16.94,73084.5,-0.85,-1.75,-1.83,0,*69
1504487065.12,21494,16.94,73090.3,-0.89,-1.67,-1.67,0,*6B
1504487066.33,21495,16.94,73096.3,-0.89,-1.67,-1.75,0,*69
1504487067.54,21496,16.94,73096.8,-0.89,-1.79,-1.75,0,*65
1504487068.81,21497,16.94,73100.5,-0.89,-1.87,-1.87,0,*68
1504487070.07,21498,16.94,73096.3,-0.89,-1.91,-1.99,0,*6F
1504487071.33,21499,16.94,73094.0,-0.89,-1.91,-1.99,0,*6E
1504487072.55,21500,16.94,73102.5,-0.89,-1.79,-1.79,0,*67
1504487073.76,21501,16.94,73096.5,-0.89,-1.79,-1.79,0,*66
1504487074.97,21502,16.94,73096.5,-0.89,-1.75,-1.79,0,*69
1504487076.18,21503,16.94,73084.5,-0.89,-1.67,-1.67,0,*64
1504487077.39,21504,16.94,73080.3,-0.89,-1.67,-1.63,0,*67
1504487078.6,21505,16.94,73084.0,-0.89,-1.67,-1.75,0,*61
1504487079.81,21506,16.94,73088.0,-0.89,-1.63,-1.63,0,*61
1504487081.05,21507,16.94,73094.3,-0.89,-1.51,-1.47,0,*67
1504487082.26,21508,16.94,73092.5,-0.89,-1.63,-1.63,0,*6F
1504487083.47,21509,16.94,73102.3,-0.89,-1.67,-1.75,0,*6D
1504487084.68,21510,16.94,73106.8,-0.89,-1.63,-1.67,0,*62
1504487085.9,21511,16.94,73110.3,-0.89,-1.75,-1.67,0,*64
1504487087.13,21512,16.94,73104.8,-0.89,-1.79,-1.87,0,*65
1504487088.39,21513,16.94,73100.3,-0.89,-1.87,-1.91,0,*62
1504487089.61,21514,16.94,73102.0,-0.89,-1.79,-1.79,0,*62
1504487090.82,21515,16.94,73098.8,-0.89,-1.67,-1.75,0,*60
1504487092.01,21516,16.94,73098.8,-0.91,-1.75,-1.75,0,*69
1504487093.2,21517,16.94,73102.5,-0.91,-1.67,-1.67,0,*68
1504487094.41,21518,16.94,73100.8,-0.89,-1.67,-1.67,0,*6E
1504487095.63,21519,16.94,73104.8,-0.89,-1.67,-1.67,0,*6F
1504487096.89,21520,16.94,73106.0,-0.89,-1.87,-1.87,0,*65
1504487098.08,21521,16.94,73104.0,-0.91,-2.23,-2.27,0,*69
1504487099.27,21522,16.94,73098.0,-0.91,-2.27,-2.35,0,*6D
1504487100.45,21523,16.94,73096.8,-0.91,-2.23,-2.27,0,*6B
1504487101.7,21524,16.94,73098.0,-0.91,-2.03,-2.03,0,*68
1504487102.95,21525,16.94,73100.5,-0.91,-1.99,-1.99,0,*69
1504487104.17,21526,16.94,73094.3,-0.91,-1.87,-1.79,0,*6B
1504487105.36,21527,16.94,73088.5,-0.91,-1.79,-1.79,0,*6B
1504487106.55,21528,16.94,73100.5,-0.91,-1.67,-1.75,0,*67
1504487107.76,21529,16.94,73104.8,-0.93,-1.67,-1.71,0,*60
1504487108.96,21530,16.94,73102.5,-0.91,-1.75,-1.75,0,*6D
1504487110.17,21531,16.94,73098.8,-0.91,-1.79,-1.87,0,*6D
1504487111.41,21532,16.94,73088.3,-0.91,-2.03,-2.03,0,*6F
1504487112.6,21533,16.94,73100.3,-0.91,-2.35,-2.35,0,*6E
1504487113.82,21534,16.94,73106.8,-0.91,-2.39,-2.47,0,*60
1504487115.0,21535,16.94,73102.5,-0.95,-2.43,-2.43,0,*6C
1504487116.27,21536,16.94,73106.3,-0.93,-2.51,-2.55,0,*6D
1504487117.49,21537,16.94,73102.3,-0.93,-2.31,-2.31,0,*68
1504487118.68,21538,16.94,73088.5,-0.95,-2.39,-2.31,0,*69
1504487119.87,21539,16.94,73090.8,-0.95,-2.19,-2.15,0,*6C
1504487121.06,21540,16.94,73088.8,-0.95,-2.15,-2.19,0,*62
1504487122.25,21541,16.94,73092.0,-0.95,-2.15,-2.19,0,*63
1504487123.44,21542,16.94,73096.8,-0.95,-2.15,-2.15,0,*6C
1504487124.63,21543,16.94,73084.5,-0.95,-2.39,-2.31,0,*65
1504487125.9,21544,16.94,73090.3,-0.97,-2.55,-2.47,0,*6B
1504487127.17,21545,16.94,73094.8,-0.97,-2.47,-2.47,0,*69
1504487128.36,21546,16.94,73088.5,-0.99,-2.35,-2.35,0,*64
1504487129.6,21547,16.94,73096.8,-0.97,-2.23,-2.11,0,*6A
1504487130.87,21548,16.94,73094.3,-0.97,-1.99,-1.99,0,*64
1504487132.14,21549,16.94,73096.3,-0.97,-1.95,-1.99,0,*69
1504487133.41,21550,16.94,73102.8,-0.97,-1.83,-1.87,0,*69
1504487134.65,21551,16.94,73100.5,-0.97,-1.83,-1.75,0,*65
1504487135.87,21552,16.94,73102.3,-0.97,-1.75,-1.75,0,*6F
1504487137.08,21553,16.94,73098.0,-0.97,-1.75,-1.71,0,*6A
1504487138.31,21554,16.94,73104.5,-0.97,-1.71,-1.71,0,*69
1504487139.53,21555,16.94,73110.8,-0.97,-1.71,-1.71,0,*68
1504487140.73,21556,16.94,73098.8,-0.99,-1.63,-1.71,0,*66
1504487141.95,21557,16.94,73112.5,-0.97,-1.71,-1.71,0,*6A
1504487143.17,21558,16.94,73108.3,-0.97,-1.67,-1.71,0,*62
1504487144.38,21559,16.94,73112.5,-0.97,-1.75,-1.75,0,*64
1504487145.6,21560,16.94,73112.5,-0.97,-1.75,-1.71,0,*6A
1504487146.8,21561,16.94,73112.0,-0.95,-1.71,-1.67,0,*6A
1504487147.99,21562,16.94,73110.0,-0.95,-1.79,-1.67,0,*61
1504487149.2,21563,16.94,73116.3,-0.95,-1.71,-1.71,0,*6F
1504487150.39,21564,16.94,73112.3,-0.95,-1.79,-1.71,0,*60
1504487151.58,21565,16.94,73114.0,-0.95,-1.79,-1.71,0,*61
1504487152.8,21566,16.94,73114.3,-0.93,-1.79,-1.79,0,*6C
1504487154.07,21567,16.94,73118.5,-0.93,-1.83,-1.83,0,*6D
1504487155.31,21568,16.94,73112.8,-0.95,-1.83,-1.91,0,*67
1504487156.55,21569,16.94,73114.0,-0.95,-1.95,-2.03,0,*69
1504487157.78,21570,16.94,73114.0,-0.95,-1.95,-1.95,0,*6D
1504487159.03,21571,16.94,73118.0,-0.95,-1.83,-1.91,0,*6F
1504487160.27,21572,16.94,73112.5,-0.95,-1.83,-1.91,0,*6C
1504487161.53,21573,16.94,73114.0,-0.93,-1.91,-1.95,0,*6C
1504487162.77,21574,16.94,73110.5,-0.95,-2.03,-1.95,0,*65
1504487164.0,21575,16.94,73108.3,-0.95,-1.95,-1.95,0,*68
1504487165.27,21576,16.94,73114.8,-0.97,-1.83,-1.87,0,*6D
1504487166.48,21577,16.94,73116.0,-0.97,-1.75,-1.75,0,*68
1504487167.68,21578,16.94,73114.5,-0.95,-1.71,-1.71,0,*65
1504487168.88,21579,16.94,73112.8,-0.95,-1.71,-1.71,0,*64
1504487170.08,21580,16.94,73112.3,-0.95,-1.71,-1.71,0,*62
1504487171.3,21581,16.94,73110.5,-0.93,-1.71,-1.71,0,*65
1504487172.5,21582,16.94,73108.3,-0.95,-1.79,-1.79,0,*60
1504487173.74,21583,16.94,73116.0,-0.93,-2.03,-2.15,0,*60
1504487174.92,21584,16.94,73114.0,-0.95,-2.27,-2.27,0,*66
1504487176.11,21585,16.94,73108.8,-0.95,-2.19,-2.27,0,*6A
1504487177.3,21586,16.94,73110.8,-0.95,-2.19,-2.19,0,*64
1504487178.57,21587,16.94,73108.3,-0.97,-2.11,-2.11,0,*67
1504487179.81,21588,16.94,73114.5,-0.97,-2.11,-2.19,0,*60
1504487181.09,21589,16.94,73112.8,-0.97,-1.99,-2.07,0,*6D
1504487182.36,21590,16.94,73114.0,-0.97,-1.99,-2.07,0,*65
1504487183.61,21591,16.94,73110.3,-0.99,-2.03,-2.11,0,*6D
1504487184.88,21592,16.94,73112.8,-0.97,-1.99,-1.99,0,*63
1504487186.14,21593,16.94,73110.0,-0.97,-1.95,-1.95,0,*62
1504487187.4,21594,16.94,73108.5,-0.97,-1.87,-1.87,0,*65
1504487188.66,21595,16.94,73108.8,-0.97,-1.95,-1.95,0,*64
1504487189.91,21596,16.94,73104.0,-0.99,-1.99,-1.99,0,*69
1504487191.18,21597,16.94,73098.0,-0.97,-1.99,-1.95,0,*6A
1504487192.39,21598,16.94,73090.8,-0.97,-1.75,-1.75,0,*69
1504487193.6,21599,16.94,73088.0,-0.97,-1.75,-1.75,0,*68
1504487194.83,21600,16.94,73094.8,-0.97,-1.71,-1.71,0,*6B
1504487196.02,21601,16.94,73100.8,-0.95,-1.67,-1.67,0,*68
1504487197.22,21602,16.94,73102.8,-0.95,-1.67,-1.71,0,*6C
1504487198.41,21603,16.94,73108.3,-0.95,-1.67,-1.71,0,*6D
1504487199.61,21604,16.94,73110.3,-0.95,-1.67,-1.71,0,*6A
1504487200.83,21605,16.94,73112.5,-0.97,-1.71,-1.71,0,*6E
1504487202.05,21606,16.94,73116.0,-0.97,-1.67,-1.67,0,*6D
1504487203.24,21607,16.94,73110.3,-0.95,-1.67,-1.67,0,*6E
1504487204.46,21608,16.94,73106.0,-0.93,-1.63,-1.67,0,*63
1504487205.65,21609,16.94,73106.3,-0.95,-1.63,-1.67,0,*64
1504487206.84,21610,16.94,73112.0,-0.95,-1.67,-1.63,0,*6C
1504487208.06,21611,16.94,73114.3,-0.93,-1.63,-1.63,0,*6F
1504487209.25,21612,16.94,73106.3,-0.95,-1.63,-1.63,0,*6A
1504487210.46,21613,16.94,73106.3,-0.93,-1.67,-1.67,0,*6D
1504487211.68,21614,16.94,73114.5,-0.93,-1.63,-1.67,0,*6E
1504487212.92,21615,16.94,73116.3,-0.93,-1.43,-1.51,0,*68
1504487214.17,21616,16.94,73112.3,-0.95,-1.39,-1.43,0,*63
1504487215.41,21617,16.94,73100.0,-0.93,-1.43,-1.51,0,*6A
1504487216.62,21618,16.94,73112.0,-0.93,-1.55,-1.63,0,*63
1504487217.84,21619,16.94,73104.3,-0.93,-1.63,-1.63,0,*67
1504487219.11,21620,16.94,73098.5,-0.93,-1.39,-1.43,0,*60
1504487220.35,21621,16.94,73092.0,-0.93,-1.33,-1.39,0,*66
1504487221.56,21622,16.94,73104.3,-0.93,-1.51,-1.51,0,*6F
1504487222.75,21623,16.94,73106.0,-0.91,-1.51,-1.59,0,*64
1504487223.93,21624,16.94,73094.8,-0.91,-1.51,-1.59,0,*63
1504487225.14,21625,16.94,73104.0,-0.89,-1.63,-1.59,0,*6A
1504487226.32,21626,16.94,73108.3,-0.91,-1.59,-1.51,0,*61
1504487227.5,21627,16.94,73110.3,-0.91,-1.59,-1.59,0,*68
1504487228.69,21628,16.94,73110.5,-0.91,-1.51,-1.59,0,*6F
1504487229.89,21629,16.94,73108.8,-0.89,-1.59,-1.63,0,*66
1504487231.1,21630,16.94,73098.8,-0.89,-1.59,-1.59,0,*67
1504487232.3,21631,16.94,73098.8,-0.89,-1.59,-1.63,0,*6F
1504487233.49,21632,16.94,73096.5,-0.91,-1.63,-1.63,0,*6C
1504487234.68,21633,16.94,73094.3,-0.91,-1.63,-1.63,0,*6D
1504487235.89,21634,16.94,73088.8,-0.89,-1.63,-1.59,0,*6A
1504487237.09,21635,16.94,73072.0,-0.89,-1.59,-1.59,0,*62
1504487238.28,21636,16.94,73116.0,-0.91,-1.63,-1.59,0,*61
1504487239.49,21637,16.94,73126.8,-0.89,-1.63,-1.63,0,*60
1504487240.75,21638,16.94,73114.8,-0.89,-1.47,-1.39,0,*66
1504487241.96,21639,16.94,73104.3,-0.89,-1.63,-1.63,0,*6E
1504487243.18,21640,16.94,73100.0,-0.89,-1.67,-1.67,0,*60
1504487244.39,21641,16.94,73092.3,-0.89,-1.67,-1.67,0,*61
1504487245.61,21642,16.94,73100.8,-0.89,-1.67,-1.67,0,*62
1504487246.81,21643,16.94,73106.5,-0.89,-1.59,-1.59,0,*63
1504487248.02,21644,16.94,73118.3,-0.89,-1.63,-1.63,0,*64
1504487249.23,21645,16.94,73122.3,-0.89,-1.63,-1.63,0,*65
1504487250.5,21646,16.94,73118.8,-0.89,-1.47,-1.35,0,*63
1504487251.76,21647,16.94,73112.3,-0.89,-1.35,-1.35,0,*67
1504487252.97,21648,16.94,73110.3,-0.89,-1.63,-1.63,0,*68
1504487254.17,21649,16.94,73108.0,-0.89,-1.63,-1.59,0,*60
1504487255.38,21650,16.94,73122.0,-0.89,-1.59,-1.63,0,*68
1504487256.59,21651,16.94,73122.0,-0.89,-1.59,-1.59,0,*60
1504487257.79,21652,16.94,73120.0,-0.89,-1.59,-1.59,0,*63
1504487258.99,21653,16.94,73118.8,-0.89,-1.59,-1.59,0,*62
1504487260.2,21654,16.94,73106.3,-0.89,-1.51,-1.59,0,*6D
1504487261.41,21655,16.94,73100.3,-0.89,-1.67,-1.63,0,*60
1504487262.62,21656,16.94,73090.5,-0.89,-1.67,-1.67,0,*67
1504487263.84,21657,16.94,73094.5,-0.85,-1.71,-1.63,0,*69
1504487265.06,21658,16.94,73106.5,-0.85,-1.71,-1.71,0,*65
1504487266.27,21659,16.94,73110.3,-0.89,-1.75,-1.67,0,*6B
1504487267.48,21660,16.94,73106.3,-0.89,-1.67,-1.67,0,*62
1504487268.73,21661,16.94,73108.0,-0.91,-1.47,-1.47,0,*6A
1504487269.94,21662,16.94,73112.5,-0.89,-1.51,-1.63,0,*61
1504487271.14,21663,16.94,73104.0,-0.89,-1.59,-1.59,0,*61
1504487272.35,21664,16.94,73112.0,-0.89,-1.59,-1.63,0,*6F
1504487273.56,21665,16.94,73126.0,-0.89,-1.63,-1.63,0,*67
1504487274.77,21666,16.94,73126.5,-0.89,-1.63,-1.63,0,*64
1504487275.98,21667,16.94,73112.8,-0.89,-1.63,-1.63,0,*65
1504487277.18,21668,16.94,73114.0,-0.85,-1.55,-1.55,0,*66
1504487278.39,21669,16.94,73104.8,-0.85,-1.59,-1.55,0,*6B
1504487279.6,21670,16.94,73102.0,-0.89,-1.51,-1.51,0,*63
1504487280.8,21671,16.94,73104.5,-0.85,-1.55,-1.55,0,*6E
1504487282.01,21672,16.94,73108.8,-0.85,-1.59,-1.59,0,*6D
1504487283.21,21673,16.94,73106.8,-0.85,-1.59,-1.59,0,*6C
1504487284.47,21674,16.94,73116.0,-0.85,-1.47,-1.43,0,*6F
1504487285.74,21675,16.94,73118.0,-0.85,-1.43,-1.47,0,*6E
1504487286.94,21676,16.94,73118.8,-0.85,-1.55,-1.55,0,*69
1504487288.21,21677,16.94,73114.5,-0.85,-1.47,-1.43,0,*6C
1504487289.47,21678,16.94,73122.5,-0.85,-1.47,-1.47,0,*67
1504487290.71,21679,16.94,73116.8,-0.85,-1.47,-1.55,0,*65
1504487291.97,21680,16.94,73120.8,-0.85,-1.43,-1.43,0,*60
1504487293.21,21681,16.94,73124.3,-0.85,-1.47,-1.55,0,*62
1504487294.43,21682,16.94,73120.5,-0.83,-1.55,-1.51,0,*60
1504487295.63,21683,16.94,73122.3,-0.85,-1.55,-1.59,0,*6F
1504487296.84,21684,16.94,73122.5,-0.85,-1.55,-1.55,0,*64
1504487298.05,21685,16.94,73120.0,-0.85,-1.55,-1.55,0,*65
1504487299.25,21686,16.94,73116.5,-0.85,-1.59,-1.55,0,*6A
1504487300.47,21687,16.94,73118.5,-0.83,-1.51,-1.51,0,*61
1504487301.68,21688,16.94,73116.8,-0.83,-1.51,-1.51,0,*6E
1504487302.96,21689,16.94,73112.0,-0.83,-1.43,-1.43,0,*6F
1504487304.17,21690,16.94,73112.0,-0.83,-1.51,-1.51,0,*67
1504487305.38,21691,16.94,73110.3,-0.85,-1.55,-1.55,0,*60